Location: Utrecht
(52.0907°N, 5.1214°E)
Time: 04:00:57
(UTC+02:00)

DIWATA 2B (PO-101) - Visible Passes

Search period start: 30 June 2022 00:00
Search period end: 10 July 2022 00:00
Orbit: 585 x 597 km, 98.0° (Epoch: 29 June)

Date Brightness Start Highest point End Pass type
(mag) Time Alt. Az. Time Alt. Az. Time Alt. Az.
30 Jun ? 01:57:10 10° E 01:59:57 17° ENE 02:02:44 10° NNE visible
30 Jun ? 03:31:00 11° S 03:34:59 71° WSW 03:39:14 10° NNW visible
01 Jul ? 02:05:07 10° ESE 02:08:12 20° ENE 02:11:18 10° NNE visible
01 Jul ? 03:39:27 12° S 03:43:21 59° WSW 03:47:33 10° NNW visible
02 Jul ? 02:13:08 10° ESE 02:16:28 23° ENE 02:19:49 10° N visible
02 Jul ? 03:47:55 12° S 03:51:43 49° W 03:55:51 10° NNW visible
03 Jul ? 02:21:12 10° ESE 02:24:44 27° ENE 02:28:17 10° N visible
03 Jul ? 03:56:22 11° SSW 04:00:06 41° W 04:04:07 10° NNW visible
04 Jul ? 02:29:18 10° SE 02:33:01 31° ENE 02:36:44 10° N visible
04 Jul ? 04:04:49 11° SSW 04:08:29 34° W 04:12:22 10° NNW visible
05 Jul ? 02:37:26 10° SE 02:41:17 36° ENE 02:45:11 10° N visible
05 Jul ? 04:13:17 10° SSW 04:16:53 29° W 04:20:36 10° NNW visible
06 Jul ? 02:45:36 10° SE 02:49:35 43° ENE 02:53:36 10° N visible
06 Jul ? 04:21:48 10° SSW 04:25:17 24° W 04:28:46 10° NW visible
07 Jul ? 02:53:49 10° SE 02:57:53 51° ENE 03:01:59 10° N visible
07 Jul ? 04:30:29 10° SW 04:33:42 21° W 04:36:54 10° NW visible
08 Jul ? 01:30:50 10° ENE 01:31:31 10° NE 01:32:12 10° NE visible
08 Jul ? 03:02:06 10° SSE 03:06:12 61° ENE 03:10:22 10° N visible
08 Jul ? 04:39:14 10° SW 04:42:06 18° W 04:45:00 10° NW visible
09 Jul ? 01:38:07 10° ENE 01:39:44 12° NE 01:41:21 10° NNE visible
09 Jul ? 03:10:34 11° SSE 03:14:31 73° ENE 03:18:44 10° N visible
